C/2015 V2 ( Johnson )

Japanese version
Home page
Updated on March 25, 2017

---------------------------------------------------------------------

* Profile

Discovery Date November 3, 2015
Magnitude 17.1 mag
Discoverer J. A. Johnson (Catalina Sky Survey)

* Pictures

* Orbital Elements

Epoch 2017 June 16.0 TT = JDT 2457920.5
T 2017 June 12.34201 TT                                 MPCW
q   1.6369848            (2000.0)            P               Q
z  -0.0010808      Peri.  164.89698     -0.49022323     +0.49433567
 +/-0.0000004      Node    69.84942     -0.85775336     -0.12741191
e   1.0017693      Incl.   49.87654     -0.15472671     -0.85988281
From 2514 observations 2015 Nov. 3-2017 Mar. 8, mean residual 0".4.

* Finding Charts

* Magnitudes Graph

        m1 = 5.0 + 5 log d + 10.0 log r

---------------------------------------------------------------------

The orbital elements are published on M.P.E.C. 2017-E59.
The charts are made with StellaNavigator Ver.8 (AstroArts).
The magnitudes graphs are made with Comet for Windows.

---------------------------------------------------------------------

Copyright(C) Seiichi Yoshida (comet@aerith.net). All rights reserved.